Tracking 25963 objects as of 12-Aug-2022
HD Live streaming from Space Station
objects crossing your sky now

STARLINK-2647

Track STARLINK-2647 now!
10-day predictions
STARLINK-2647 is classified as:


NORAD ID: 48658
Int'l Code: 2021-044W
Perigee: 553.3 km
Apogee: 555.5 km
Inclination: 53.1 °
Period: 95.6 minutes
Semi major axis: 6925 km
RCS: Unknown
Launch date: May 26, 2021
Source: United States (US)
Launch site: AIR FORCE EASTERN TEST RANGE (AFETR)
aabbcc
Your satellite tracking list
Your tracking list is empty




NASA's NSSDC Master Catalog

Two Line Element Set (TLE):
1 48658U 21044W   22224.02039204 -.00001516  00000-0 -82891-4 0  9991
2 48658  53.0546 223.0062 0001538  65.0149 295.0999 15.06388813 67811
Source of the keplerian elements: AFSPC